Location: Klickitat County Star Party
(45.8642°N, 120.6771°W)
Time: 03:30:17
(UTC-07:00)

SO-50 - Pass Details

Date: 30 May 2019
Orbit: 586 x 700 km, 64.6° (Epoch: 16 June)

Event Time Altitude Azimuth Distance (km) Brightness Sun altitude
Rises 02:16:18 0° 319° (NW) 3,081 ? -20.2°
Reaches altitude 10° 02:18:43 10° 314° (NW) 2,151 ? -20.1°
Maximum altitude 02:23:26 48° 241° (WSW) 886 ? -19.8°
Enters shadow 02:24:10 44° 212° (SSW) 935 ? -19.7°
